[[{"header":{"parameterUnit":"m.s-1","parameterCategory":1,"la1":30.2991,"la2":30.254,"lo1":-89.0895,"lo2":-89.0444,"dy":0.0017,"dx":0.0017,"nx":28,"ny":28,"refTime":"2023-10-21T09:00:00:Z","depth":0,"parameterNumber":2,"parameterNumberName":"U-component_of_WINDS"},"data":[0,0,0,0,0,0,0,0,0,0,0,0,0,0,0,0,0,0,0,0,0,0,0,0,0,0,0,0,0,0,0,0,0,0,0,0,0,0,0,0,0,0,0,0,0,0,0,0,0,0,0,0,0,0,0,0,0,0,0.9414,0.9415,0,0.9471,0.9471,0.9472,0.9439,0.9437,0.9435,0.9434,0.9496,0.9499,0.9502,0,0,0,0,0,0,0,0,0,0,0,0,0,0.9279,0.9282,0.9414,0.9415,0.9416,0.9471,0.9472,0.9472,0.9439,0.9437,0.9435,0.9433,0.9495,0.9499,0.9503,0,0,0,0,0,0,0,0,0,0,0,0,0,0.9337,0.9283,0.9414,0.9405,0.9405,0.9471,0.9472,0.9473,0.9439,0.9437,0.9435,0.9432,0.9494,0.9498,0.9503,0.9581,0,0,0.9518,0.952,0,0,0,0,0,0,0,0,0.9334,0.9342,0.9406,0.9406,0.9406,0.9445,0.9447,0.9509,0.944,0.9427,0.9434,0.9431,0.9481,0.9487,0.9503,0.9584,0.9587,0.9518,0.9521,0.9523,0.9524,0,0,0,0,0,0,0,0.933,0.934,0.9437,0.9407,0.9407,0.94,0.9405,0.9458,0.9467,0.9428,0.9425,0.9432,0.9481,0.9499,0.9504,0.9588,0.9518,0.9522,0.9525,0.9527,0.9734,0.9736,0,0,0,0,0,0,0.9326,0.9336,0.9435,0.9438,0.9363,0.9404,0.941,0.9435,0.9466,0.9469,0.9434,0.943,0.9492,0.9499,0.9506,0.9599,0.9523,0.9527,0.953,0.9731,0.9735,0.9737,0,0,0,0,0,0,0.9323,0.9335,0.9433,0.9387,0.9399,0.9409,0.9437,0.9438,0.9455,0.9471,0.9473,0.9451,0.949,0.95,0.9562,0.9601,0.953,0.9534,0.9728,0.9732,0.9736,0.9785,0,0,0,0,0,0,0.932,0.9334,0.9364,0.9388,0.9401,0.9487,0.944,0.944,0.9463,0.9458,0.9487,0.949,0.9489,0.9555,0.9567,0.9606,0.9538,0.9725,0.973,0.9735,0.978,0.979,0.9799,0,0,0,0,0,0.9315,0.9377,0.9366,0.9378,0.9438,0.9489,0.9497,0.9494,0.9466,0.9496,0.9506,0.9489,0.9594,0.9562,0.9575,0.9616,0.9722,0.9729,0.9734,0.9776,0.9788,0.9799,0,0,0,0,0,0,0.9359,0.938,0.9368,0.9439,0.9462,0.9483,0.9521,0.9507,0.954,0.9535,0.9531,0.9537,0.9602,0.9615,0.9579,0.9692,0.9654,0.9663,0.9681,0.9693,0.9702,0.9698,0.9542,0,0,0,0,0,0.9377,0.9416,0.9432,0.9493,0.9505,0.9511,0.9534,0.9529,0.9553,0.9564,0.9579,0.9604,0.9643,0.9669,0.9705,0.9781,0.9787,0.9816,0.9825,0.9833,0.9841,0.988,0.9893,0.9757,0.9757,0.9757,0,0,0.9415,0.9431,0.9456,0.9503,0.952,0.9561,0.952,0.9566,0.9596,0.9571,0.963,0.9642,0.967,0.9739,0.9771,0.9752,0.9879,0.984,0.9846,0.985,0.9888,0.99,0.9912,0.9761,0.976,0.976,0,0,0.9504,0.952,0.9572,0.959,0.9616,0.9619,0.9632,0.9655,0.9661,0.972,0.9701,0.9738,0.9805,0.9825,0.9844,0.9939,0.9924,0.9951,1.0,1.0039,1.005,1.0059,1.0092,1.0104,0.9959,0.9959,0.9959,0,0.9548,0.9608,0.9601,0.9647,0.9668,0.9645,0.9698,0.9716,0.9754,0.9769,0.9747,0.9829,0.9847,0.992,0.9942,0.9959,0.9973,0.9948,1.0049,1.0058,1.0067,1.0098,1.0111,0.9962,0.9962,0.9961,0.9961,0,0.966,0.9702,0.9741,0.9775,0.9801,0.985,0.9851,0.9877,0.987,0.9875,0.9935,0.9954,0.9994,1.0011,1.0005,1.0082,1.007,1.0049,1.0011,1.0083,1.0112,1.0124,0.9966,0.9965,0.9964,0.9964,0,0,0.978,0.9809,0.9823,0.9838,0.9864,0.9897,0.9945,0.9982,1.0004,1.003,1.007,1.0126,1.0106,1.0128,1.0124,1.0158,1.023,1.0132,1.0132,1.0149,1.0315,1.0331,1.0345,1.0219,1.0222,1.0223,1.0312,0,0.9871,0.9953,0.9947,1.0025,1.0063,1.0041,1.0082,1.0103,1.0109,1.0143,1.015,1.0189,1.016,1.0172,1.0205,1.0214,1.0263,1.0208,1.0257,1.0259,1.025,1.036,1.0378,1.0461,1.0324,1.0326,1.0327,0,0.9988,1.0016,1.0097,1.0116,1.0131,1.0169,1.0201,1.0233,1.0256,1.0258,1.0281,1.0271,1.0319,1.0279,1.0345,1.0307,1.0327,1.0334,1.0338,1.0342,1.0298,1.0368,1.0487,1.0499,1.0346,1.0344,1.0343,0,1.0066,1.0125,1.018,1.0194,1.0217,1.0244,1.0255,1.0275,1.0297,1.0326,1.034,1.0374,1.0393,1.042,1.0419,1.039,1.0486,1.0446,1.0489,1.0489,1.0511,1.0509,1.0635,1.0524,1.0523,1.0523,1.0523,0,1.0168,1.0218,1.0215,1.025,1.0305,1.0298,1.0353,1.0362,1.038,1.0415,1.0399,1.0433,1.0429,1.0463,1.0463,1.0517,1.0526,1.0529,1.0528,1.0531,1.053,1.0544,1.0538,1.0526,1.0526,1.0525,1.0525,0,1.0265,1.0266,1.0325,1.0341,1.0347,1.0387,1.0401,1.0434,1.0437,1.0482,1.0492,1.0498,1.0537,1.0539,1.0585,1.0584,1.065,1.0643,1.0642,1.064,1.0683,1.0678,1.0821,1.0839,1.0717,1.0718,1.0719,0,1.033,1.0368,1.0388,1.041,1.0422,1.0458,1.0479,1.0474,1.0497,1.0524,1.0553,1.059,1.062,1.0683,1.0692,1.0727,1.072,1.0768,1.0725,1.0726,1.072,1.0718,1.0721,1.0776,1.0778,1.0779,1.078,0,1.0445,1.0442,1.0473,1.0504,1.053,1.0554,1.0577,1.0596,1.0592,1.0619,1.0658,1.0681,1.0726,1.0763,1.0795,1.0808,1.0793,1.0792,1.0804,1.0807,1.0804,1.0805,1.0664,1.079,1.0789,1.0788,1.0787,1.0787,1.0528,1.0559,1.0578,1.0613,1.0628,1.0649,1.068,1.0686,1.0718,1.0753,1.0748,1.0791,1.0811,1.0854,1.0868,1.0902,1.0886,1.0903,1.0907,1.0911,1.0915,1.0798,1.0908,1.0908,1.0908,1.0907,1.0907,0,1.064,1.0651,1.0683,1.0713,1.0741,1.0723,1.0746,1.077,1.0808,1.0828,1.0856,1.09,1.0935,1.0946,1.098,1.1004,1.0999,1.1014,1.1012,1.1014,1.0928,1.0915,1.1018,1.1018,1.1018,1.1018,1.1018,1.1017,1.0702,1.0755,1.0755,1.0814,1.0824,1.0865,1.088,1.0899,1.0914,1.0964,1.0992,1.0998,1.1014,1.1049,1.108,1.1082,1.1095,1.1113,1.1112,1.1032,1.1021,1.101,1.0997,1.1116,1.1116,1.1195,1.1196,1.1197]},{"header":{"parameterUnit":"m.s-1","parameterCategory":1,"la1":30.2991,"la2":30.254,"lo1":-89.0895,"lo2":-89.0444,"dy":0.0017,"dx":0.0017,"nx":28,"ny":28,"refTime":"2023-10-21T09:00:00:Z","depth":0,"parameterNumber":3,"parameterNumberName":"V-component_of_WINDS"},"data":[0,0,0,0,0,0,0,0,0,0,0,0,0,0,0,0,0,0,0,0,0,0,0,0,0,0,0,0,0,0,0,0,0,0,0,0,0,0,0,0,0,0,0,0,0,0,0,0,0,0,0,0,0,0,0,0,0,0,2.4009,2.4009,0,2.3981,2.398,2.398,2.3967,2.3967,2.3967,2.3967,2.3933,2.3932,2.3931,0,0,0,0,0,0,0,0,0,0,0,0,0,2.4049,2.4049,2.4009,2.4009,2.4009,2.3981,2.398,2.398,2.3967,2.3967,2.3967,2.3967,2.3934,2.3932,2.3931,0,0,0,0,0,0,0,0,0,0,0,0,0,2.4027,2.4048,2.4009,2.3999,2.3998,2.3981,2.398,2.398,2.3967,2.3967,2.3967,2.3968,2.3934,2.3933,2.3931,2.3921,0,0,2.3927,2.3926,0,0,0,0,0,0,0,0,2.4028,2.4026,2.4001,2.4,2.3998,2.3978,2.3982,2.396,2.3967,2.3979,2.3967,2.3968,2.3948,2.3945,2.3939,2.3919,2.3917,2.3927,2.3926,2.3925,2.3925,0,0,0,0,0,0,0,2.403,2.4027,2.3998,2.4001,2.3999,2.3995,2.3991,2.3977,2.3963,2.3978,2.3977,2.3974,2.3947,2.3941,2.3938,2.3917,2.3927,2.3925,2.3924,2.3924,2.3885,2.3885,0,0,0,0,0,0,2.4034,2.4028,2.3999,2.3997,2.4014,2.3994,2.399,2.3984,2.3963,2.396,2.3974,2.3973,2.3943,2.394,2.3937,2.3923,2.3925,2.3924,2.3923,2.3886,2.3885,2.3885,0,0,0,0,0,0,2.4035,2.4031,2.4,2.4012,2.4008,2.3993,2.3986,2.3984,2.3978,2.396,2.3957,2.3971,2.3943,2.3939,2.3925,2.3922,2.3923,2.3922,2.3886,2.3885,2.3885,2.3895,0,0,0,0,0,0,2.4036,2.4032,2.4029,2.4012,2.4007,2.399,2.3986,2.3983,2.3976,2.3975,2.3956,2.3953,2.3943,2.3927,2.3924,2.392,2.3921,2.3886,2.3886,2.3885,2.3895,2.3895,2.3895,0,0,0,0,0,2.4037,2.4032,2.4029,2.4025,2.4004,2.3989,2.3986,2.3976,2.3975,2.3971,2.396,2.3954,2.3923,2.3926,2.3922,2.3917,2.3886,2.3886,2.3885,2.3895,2.3895,2.3895,0,0,0,0,0,0,2.4046,2.4029,2.4026,2.4015,2.4004,2.3987,2.3982,2.3977,2.3965,2.3964,2.395,2.3946,2.3933,2.3924,2.3927,2.3905,2.3904,2.3903,2.3912,2.3912,2.3913,2.3915,2.3919,0,0,0,0,0,2.4047,2.4039,2.4024,2.4015,2.401,2.3997,2.3991,2.3984,2.3971,2.3966,2.3954,2.3941,2.3928,2.3919,2.3907,2.3893,2.3888,2.3888,2.3888,2.3889,2.3888,2.3879,2.3878,2.3884,2.3884,2.3884,0,0,2.4049,2.4038,2.4033,2.4017,2.4008,2.3998,2.3993,2.3983,2.3975,2.3964,2.395,2.3941,2.3925,2.3911,2.3904,2.3903,2.3885,2.3888,2.3889,2.3887,2.3879,2.3878,2.3878,2.3884,2.3884,2.3884,0,0,2.4046,2.4038,2.403,2.4021,2.4008,2.3999,2.3997,2.3981,2.3975,2.3961,2.3953,2.3942,2.3921,2.391,2.3901,2.3894,2.3888,2.389,2.3891,2.3883,2.3883,2.3882,2.3879,2.3878,2.3889,2.3889,2.3889,0,2.4049,2.4036,2.4026,2.4017,2.4009,2.4,2.3991,2.3983,2.3965,2.3959,2.3958,2.3931,2.392,2.3903,2.3901,2.3895,2.3891,2.3892,2.3884,2.3883,2.3883,2.3879,2.3878,2.389,2.389,2.389,2.389,0,2.404,2.403,2.4025,2.401,2.4002,2.3993,2.3981,2.3973,2.3967,2.3958,2.3943,2.393,2.3914,2.3909,2.3902,2.3891,2.389,2.3887,2.3885,2.3883,2.3879,2.3878,2.3891,2.389,2.389,2.389,0,0,2.4042,2.4022,2.4021,2.4013,2.3998,2.3989,2.3979,2.3965,2.3959,2.3947,2.3937,2.3919,2.3916,2.3906,2.3898,2.389,2.3885,2.3887,2.3887,2.3887,2.3871,2.3873,2.3872,2.3881,2.3881,2.388,2.3872,0,2.4037,2.402,2.4012,2.3998,2.3988,2.3979,2.397,2.3959,2.395,2.3939,2.3929,2.3916,2.3913,2.3907,2.39,2.3888,2.3882,2.3888,2.387,2.387,2.3874,2.3871,2.3874,2.3866,2.3871,2.387,2.387,0,2.4029,2.4019,2.4005,2.399,2.3986,2.3978,2.3964,2.3955,2.3941,2.3935,2.3924,2.3916,2.3903,2.3903,2.3884,2.3888,2.388,2.3873,2.3873,2.387,2.387,2.3868,2.3864,2.3863,2.3868,2.3868,2.3869,0,2.4032,2.4014,2.4003,2.3998,2.398,2.3975,2.3967,2.3954,2.3946,2.3933,2.3927,2.3913,2.3905,2.3893,2.388,2.3881,2.3862,2.3861,2.3856,2.3856,2.3852,2.3852,2.3847,2.3848,2.3848,2.3848,2.3848,0,2.4027,2.4019,2.4005,2.3998,2.3987,2.3977,2.3966,2.3957,2.3946,2.3936,2.3926,2.3917,2.3902,2.389,2.388,2.3865,2.3862,2.3855,2.3853,2.3856,2.3857,2.385,2.385,2.3847,2.3847,2.3848,2.3848,0,2.4029,2.4019,2.4006,2.3991,2.3987,2.398,2.3966,2.3959,2.3949,2.3937,2.3933,2.3918,2.3904,2.3891,2.3871,2.3864,2.3849,2.3846,2.3854,2.3853,2.3849,2.3849,2.3838,2.3836,2.3839,2.3839,2.3839,0,2.4026,2.402,2.4004,2.3998,2.3991,2.398,2.3972,2.3961,2.3953,2.3937,2.3931,2.3916,2.3904,2.3881,2.3867,2.3851,2.3847,2.3844,2.3845,2.3848,2.3846,2.3847,2.3846,2.3844,2.3844,2.3845,2.3845,0,2.4023,2.4018,2.4008,2.3997,2.3988,2.3977,2.3967,2.3961,2.3948,2.3939,2.3925,2.3915,2.3896,2.3881,2.3864,2.3854,2.3846,2.3845,2.3843,2.3846,2.3851,2.3847,2.3854,2.3845,2.3845,2.3845,2.3845,2.3845,2.4022,2.4016,2.4004,2.3993,2.3984,2.3974,2.3966,2.3956,2.3945,2.3929,2.3923,2.3908,2.3893,2.387,2.386,2.3847,2.3846,2.3843,2.3842,2.3842,2.3842,2.3853,2.3844,2.3844,2.3844,2.3844,2.3844,0,2.4018,2.401,2.4,2.3986,2.3976,2.3972,2.396,2.3952,2.394,2.3928,2.3916,2.3899,2.3885,2.387,2.3854,2.3846,2.3843,2.3843,2.3843,2.384,2.3845,2.3848,2.3846,2.3846,2.3846,2.3846,2.3846,2.3846,2.4014,2.4003,2.3997,2.3981,2.3973,2.396,2.3953,2.3943,2.3934,2.3916,2.3905,2.3896,2.3882,2.3865,2.385,2.3846,2.384,2.3841,2.3836,2.384,2.384,2.384,2.3843,2.384,2.384,2.3832,2.3832,2.3832]}]]